Location: Ceske Budejovice
(48.9830°N, 14.4670°E)
Time: 03:21:21
(UTC+01:00)

ISS - Pass Details

Date: 10 October 2020
Orbit: 417 x 420 km, 51.6° (Epoch: 25 October)

Event Time Altitude Azimuth Distance (km) Brightness Sun altitude
Rises 18:48:07 0° 280° (W) 2,366 2.0 -5.1°
Reaches altitude 10° 18:51:47 10° 238° (WSW) 1,497 0.2 -5.7°
Maximum altitude 18:52:28 11° 226° (SW) 1,467 -0.2 -5.9°
Drops below altitude 10° 18:53:10 10° 214° (SW) 1,495 -0.4 -6.0°
Sets 18:56:49 0° 173° (S) 2,352 0.0 -6.6°
